www.pogodaiklimat.ru

Погода и климат >> Архив погоды >> Япония >> Эсаси


ПОГОДА в Эсаси

  • Прогноз погоды в Эсаси
  • Монитор погоды в Эсаси

АРХИВ ПОГОДЫ в Эсаси

Время (UTC), дата Ветер
(напр.,м/с)
 
Видим.   Явления Облачность Т
(С)
Тd
(С)
f
(%)
Тe
(С)
Тes
(С)
Комфортность P
(гПа)
Po
(гПа)
Тmin
(С)
Tmax
(С)
R
(мм)
R24
(мм)
S
(см)
13 18.06 ЮВ 1 20 км н/о +14.4 +11.6 83 +15 +15 1011.0 1009.6
14 18.06 СВ 1 20 км н/о +13.4 +10.8 84 +14 +14 1010.8 1009.3
15 18.06 Ю 1 20 км н/о +12.7 +9.7 82 +13 +13 1010.4 1008.9
16 18.06 В 1 20 км н/о +11.7 +9.3 85 +12 +12 1010.0 1008.5
17 18.06 СВ 1 20 км н/о +11.4 +8.4 82 +12 +12 1009.5 1008.0
18 18.06 Ю 1 20 км н/о +10.7 +7.9 83 +11 +11 1009.2 1007.7
19 18.06 Ю 1 20 км н/о +11.3 +8.2 81 +11 +11 1009.0 1007.5
20 18.06 штиль 0 20 км н/о +12.0 +8.9 81 +11 +11 1008.9 1007.4
21 18.06 СВ 1 20 км н/о +13.2 +9.1 76 +13 +13 1008.7 1007.3
22 18.06 СЗ 1 20 км н/о +14.3 +9.5 73 +15 +15 1008.5 1007.1
23 18.06 СЗ 1 20 км н/о +16.7 +10.6 67 +18 +18 1008.4 1007.0
00 19.06 З 1 20 км н/о +17.6 +11.0 65 +19 +19 1008.6 1007.2 +10.2
01 19.06 С 1 20 км н/о +18.6 +8.6 52 +20 +20 1008.5 1007.1
02 19.06 СЗ 4 20 км н/о +19.6 +9.8 53 +21 +21 комфорт 1008.1 1006.7
03 19.06 СЗ 3 20 км н/о +20.2 +11.9 59 +22 +22 комфорт 1007.6 1006.2
04 19.06 СЗ 2 20 км н/о +19.4 +11.9 62 +21 +21 комфорт 1007.3 1005.9
05 19.06 СЗ 2 20 км н/о +19.8 +12.3 62 +22 +22 комфорт 1007.0 1005.6
06 19.06 С 2 20 км н/о +20.4 +12.6 61 +23 +23 комфорт 1006.8 1005.4
07 19.06 ЮЗ 2 20 км н/о +20.3 +9.6 50 +22 +22 комфорт 1006.6 1005.2
08 19.06 С 2 20 км н/о +19.5 +10.0 54 +21 +21 комфорт 1006.4 1005.0
09 19.06 С 1 20 км н/о +18.8 +9.6 55 +21 +21 комфорт 1006.6 1005.2
10 19.06 Ю 1 20 км н/о +19.2 +10.5 57 +22 +22 комфорт 1006.9 1005.5
11 19.06 ЮВ 1 20 км н/о +19.0 +10.8 59 +21 +21 комфорт 1007.2 1005.8
12 19.06 Ю 1 20 км н/о +17.5 +11.5 68 +19 +19 1007.4 1006.0 +21.5
13 19.06 Ю 1 20 км н/о +16.4 +12.2 76 +17 +17 1007.3 1005.9
14 19.06 ЮВ 1 20 км н/о +15.7 +12.1 79 +17 +17 1007.6 1006.2
15 19.06 Ю 1 20 км н/о +15.7 +12.5 81 +16 +16 1007.3 1005.9
16 19.06 З 1 20 км н/о +15.2 +12.2 82 +16 +16 1007.0 1005.6
17 19.06 ЮВ 1 20 км н/о +14.7 +12.0 84 +16 +16 1006.9 1005.5
18 19.06 В 1 20 км н/о +14.9 +11.9 82 +15 +15 1007.2 1005.8
19 19.06 С 1 20 км н/о +14.6 +12.1 85 +16 +16 1007.0 1005.6
20 19.06 В 1 20 км н/о +15.0 +12.3 84 +16 +16 1007.6 1006.2
21 19.06 Ю 1 20 км н/о +16.1 +13.2 83 +17 +17 1007.2 1005.8
22 19.06 СЗ 1 20 км н/о +16.8 +13.5 81 +18 +18 1007.3 1005.9
23 19.06 С 1 20 км н/о +17.1 +13.6 80 +18 +18 1007.2 1005.8
00 20.06 ЮЗ 2 20 км н/о +20.3 +13.3 64 +23 +23 комфорт 1007.0 1005.6 +14.5
01 20.06 З 4 20 км н/о +20.6 +13.8 65 +23 +23 комфорт 1007.1 1005.7
02 20.06 ЮЗ 3 20 км н/о +19.6 +15.1 75 +22 +22 комфорт 1007.6 1006.2
03 20.06 З 4 20 км н/о +20.6 +15.8 74 +24 +24 комфорт 1007.8 1006.4
04 20.06 СЗ 2 20 км н/о +21.3 +16.5 74 +25 +25 комфорт 1007.9 1006.5
05 20.06 СЗ 3 20 км н/о +20.3 +15.3 73 +23 +23 комфорт 1007.6 1006.2
06 20.06 С 2 20 км н/о +19.9 +15.8 77 +23 +23 комфорт 1007.1 1005.7
07 20.06 С 2 20 км н/о +19.6 +14.9 74 +22 +22 комфорт 1006.8 1005.4
08 20.06 С 2 20 км н/о +19.5 +15.4 77 +22 +22 комфорт 1006.7 1005.3
09 20.06 Ю 2 20 км н/о +19.7 +15.6 77 +23 +23 комфорт 1006.6 1005.2
10 20.06 СВ 1 20 км н/о +19.5 +15.6 78 +22 +22 комфорт 1007.4 1006.0
11 20.06 ЮВ 1 20 км н/о +18.3 +14.8 80 +20 +20 1008.2 1006.8
12 20.06 ЮВ 1 20 км н/о +17.2 +13.7 80 +18 +18 1008.4 1007.0 +21.9
13 20.06 Ю 2 20 км н/о +16.7 +13.2 80 +17 +17 1008.7 1007.3
14 20.06 СВ 1 20 км н/о +16.6 +13.7 83 +18 +18 1008.4 1007.0
15 20.06 СЗ 4 20 км н/о +17.0 +14.1 83 +17 +17 1008.2 1006.8
16 20.06 ЮВ 1 20 км н/о +16.2 +13.5 84 +17 +17 1008.3 1006.9
17 20.06 Ю 2 20 км н/о +15.5 +13.2 86 +15 +15 1008.3 1006.9
18 20.06 ЮВ 2 20 км н/о +15.4 +13.3 87 +16 +16 1008.4 1007.0
19 20.06 В 1 20 км н/о +15.1 +13.1 88 +16 +16 1008.8 1007.4
20 20.06 В 1 20 км н/о +15.8 +13.7 87 +16 +16 1009.4 1008.0
21 20.06 СВ 1 20 км н/о +16.4 +13.7 84 +18 +18 1009.5 1008.1
22 20.06 С 1 20 км н/о +16.5 +13.8 84 +17 +17 1009.9 1008.5
23 20.06 СЗ 1 20 км слаб. дождь н/о +17.1 +14.6 85 +19 +19 1009.8 1008.4
00 21.06 ЮВ 2 20 км в посл. час дождь н/о +18.2 +14.7 80 +19 +19 1008.8 1007.4 +14.6 0.0
01 21.06 ЮВ 3 20 км в посл. час дождь н/о +19.3 +14.4 73 +21 +21 комфорт 1009.0 1007.6
02 21.06 ЮВ 3 20 км н/о +19.9 +14.5 71 +22 +22 комфорт 1009.2 1007.8
03 21.06 Ю 2 20 км слаб. дождь н/о +19.3 +14.6 74 +21 +21 комфорт 1009.3 1007.9
04 21.06 ЮВ 2 20 км в посл. час дождь н/о +20.8 +14.5 67 +24 +24 комфорт 1009.0 1007.6
05 21.06 ЮВ 2 20 км н/о +21.5 +14.9 66 +25 +25 комфорт 1008.8 1007.4
06 21.06 ЮВ 3 20 км {дождь} н/о +21.7 +14.6 64 +25 +25 комфорт 1008.8 1007.4 0.0
07 21.06 ЮВ 3 12 км слаб. дождь н/о +19.4 +15.9 80 +22 +22 комфорт 1009.3 1007.9
08 21.06 ЮВ 1 20 км слаб. дождь н/о +19.3 +16.5 84 +22 +22 комфорт 1008.9 1007.5
09 21.06 СВ 2 3800 м дождь н/о +18.5 +16.5 88 +20 +20 1009.6 1008.2
10 21.06 В 1 20 км в посл. час дождь н/о +18.6 +16.8 89 +21 +21 комфорт 1010.0 1008.6
11 21.06 ЮЗ 1 15 км слаб. дождь н/о +18.1 +16.6 91 +20 +20 1009.5 1008.1
12 21.06 СЗ 1 12 км в посл. час дождь н/о +17.7 +16.4 92 +19 +19 1009.2 1007.8 +22.5 3
13 21.06 В 2 20 км н/о +17.8 +15.4 86 +19 +19 1009.0 1007.6
14 21.06 Ю 2 20 км н/о +18.1 +15.4 84 +19 +19 1008.7 1007.3
15 21.06 Ю 1 20 км н/о +18.5 +15.6 83 +20 +20 1008.1 1006.7
16 21.06 ЮЗ 2 20 км н/о +18.9 +15.8 82 +21 +21 комфорт 1007.7 1006.3
17 21.06 ЮЗ 2 20 км н/о +18.8 +15.5 81 +21 +21 комфорт 1007.2 1005.8
18 21.06 ЮВ 2 20 км н/о +19.1 +15.6 80 +21 +21 комфорт 1007.1 1005.7
19 21.06 С 3 20 км н/о +18.6 +15.7 83 +20 +20 1007.5 1006.1
20 21.06 В 2 20 км н/о +17.9 +15.7 87 +19 +19 1007.9 1006.5
21 21.06 ЮЗ 2 20 км н/о +18.1 +15.4 84 +19 +19 1007.1 1005.7
22 21.06 Ю 4 20 км н/о +18.1 +15.4 84 +18 +18 1007.7 1006.3
23 21.06 В 2 20 км н/о +20.3 +16.4 78 +24 +24 комфорт 1007.1 1005.7
00 22.06 В 2 20 км н/о +21.0 +16.2 74 +25 +25 комфорт 1007.0 1005.6 +17.4
01 22.06 С 2 20 км н/о +21.1 +16.5 75 +25 +25 комфорт 1006.8 1005.4
02 22.06 З 2 10 км слаб. дождь н/о +20.4 +17.4 83 +25 +25 комфорт 1006.6 1005.2
03 22.06 СЗ 1 11 км слаб. дождь н/о +19.5 +17.5 88 +23 +23 комфорт 1006.5 1005.1
04 22.06 С 1 12 км слаб. дождь н/о +19.4 +17.6 89 +23 +23 комфорт 1006.0 1004.6
05 22.06 СЗ 1 4600 м слаб. дождь н/о +19.6 +17.7 89 +24 +24 комфорт 1005.8 1004.4
06 22.06 СЗ 2 13 км в посл. час дождь н/о +18.9 +17.1 89 +21 +21 комфорт 1006.0 1004.6 2
07 22.06 З 2 5000 м слаб. дождь н/о +18.1 +16.8 92 +19 +19 1005.6 1004.2
08 22.06 З 1 7000 м слаб. дождь н/о +17.9 +16.8 93 +19 +19 1005.4 1004.0
09 22.06 С 2 10 км слаб. дождь н/о +17.7 +16.7 94 +18 +18 1005.5 1004.1
10 22.06 Ю 2 7000 м слаб. дождь н/о +17.7 +16.7 94 +18 +18 1005.7 1004.3
11 22.06 СВ 1 10 км слаб. дождь н/о +17.7 +16.7 94 +19 +19 1005.7 1004.3
12 22.06 З 3 15 км слаб. дождь н/о +17.9 +16.8 93 +18 +18 1006.0 1004.6 +21.9 9
13 22.06 В 2 20 км слаб. дождь н/о +17.8 +15.8 88 +18 +18 1006.0 1004.6
14 22.06 В 2 20 км слаб. дождь н/о +17.7 +16.1 90 +18 +18 1006.1 1004.7
15 22.06 СВ 1 13 км слаб. дождь н/о +17.3 +15.8 91 +18 +18 1005.5 1004.1
16 22.06 В 2 20 км в посл. час дождь н/о +17.2 +15.9 92 +18 +18 1005.5 1004.1
17 22.06 В 2 20 км н/о +17.7 +15.2 85 +18 +18 1005.1 1003.7
18 22.06 ЮВ 2 20 км слаб. дождь н/о +17.4 +15.0 86 +18 +18 1005.5 1004.1 4
19 22.06 В 3 20 км в посл. час дождь н/о +17.3 +15.0 86 +17 +17 1005.7 1004.3
20 22.06 В 4 20 км н/о +17.2 +14.7 85 +17 +17 1006.1 1004.7
21 22.06 В 5 20 км {дождь} н/о +17.4 +14.3 82 +17 +17 1006.4 1005.0
22 22.06 В 5 20 км н/о +17.7 +14.0 79 +17 +17 1006.6 1005.2
23 22.06 В 6 20 км н/о +18.7 +13.6 72 +19 +19 1007.1 1005.7
00 23.06 В 6 20 км {дождь} н/о +18.6 +13.3 71 +19 +19 1007.2 1005.8 +17.0 4
01 23.06 В 5 20 км н/о +18.1 +12.6 70 +18 +18 1007.7 1006.3
02 23.06 В 4 20 км н/о +19.0 +12.5 66 +20 +20 1007.7 1006.3
03 23.06 В 5 20 км н/о +19.6 +12.4 63 +21 +21 комфорт 1007.6 1006.2
04 23.06 ЮВ 4 20 км н/о +20.5 +12.2 59 +23 +23 комфорт 1007.4 1006.0
05 23.06 ЮВ 3 20 км н/о +20.1 +12.4 61 +22 +22 комфорт 1007.7 1006.3
06 23.06 В 6 20 км н/о +18.9 +12.2 65 +19 +19 1007.7 1006.3
07 23.06 ЮВ 3 20 км н/о +18.2 +12.2 68 +19 +19 1007.9 1006.5
08 23.06 ЮВ 3 20 км н/о +18.4 +11.9 66 +19 +19 1007.9 1006.5
09 23.06 В 4 20 км н/о +17.8 +12.0 69 +18 +18 1008.4 1007.0
10 23.06 В 2 20 км н/о +17.2 +12.1 72 +18 +18 1008.6 1007.2
11 23.06 В 2 20 км н/о +16.8 +11.9 73 +17 +17 1008.9 1007.5
12 23.06 ЮВ 2 20 км н/о +17.0 +11.9 72 +18 +18 1009.1 1007.7 +21.2
13 23.06 ЮВ 2 20 км н/о +16.7 +12.1 74 +17 +17 1009.4 1008.0
14 23.06 Ю 2 20 км н/о +16.3 +11.9 75 +17 +17 1009.4 1008.0
15 23.06 В 2 20 км н/о +15.5 +11.9 79 +16 +16 1009.6 1008.2
16 23.06 В 1 20 км н/о +15.4 +12.0 80 +16 +16 1009.6 1008.2
17 23.06 В 2 20 км н/о +15.3 +11.9 80 +15 +15 1009.8 1008.4
18 23.06 З 1 20 км н/о +15.0 +12.0 82 +16 +16 1009.8 1008.4
19 23.06 ЮВ 1 20 км н/о +14.9 +12.0 83 +16 +16 1010.5 1009.1
20 23.06 В 1 20 км н/о +15.1 +12.2 83 +16 +16 1010.9 1009.5
21 23.06 Ю 1 20 км н/о +16.7 +12.5 76 +18 +18 1011.1 1009.7
22 23.06 С 2 20 км н/о +18.0 +13.1 73 +19 +19 1010.9 1009.5
23 23.06 С 2 20 км н/о +18.4 +12.8 70 +20 +20 1010.8 1009.4
00 24.06 Ю 4 20 км н/о +20.7 +12.9 61 +23 +23 комфорт 1011.0 1009.6 +14.7
01 24.06 ЮЗ 4 20 км н/о +22.3 +14.4 61 +26 +26 жарко 1011.2 1009.8
02 24.06 З 4 20 км н/о +21.9 +14.3 62 +25 +25 комфорт 1011.5 1010.1
03 24.06 З 4 20 км н/о +20.6 +15.2 71 +24 +24 комфорт 1011.6 1010.2
04 24.06 З 3 20 км н/о +20.3 +15.5 74 +23 +23 комфорт 1011.2 1009.8
05 24.06 СЗ 3 20 км н/о +20.3 +15.5 74 +23 +23 комфорт 1011.6 1010.2
06 24.06 СЗ 3 20 км н/о +20.1 +15.1 73 +23 +23 комфорт 1011.9 1010.5
07 24.06 СЗ 2 20 км н/о +19.4 +15.1 76 +22 +22 комфорт 1011.6 1010.2
08 24.06 ЮЗ 2 20 км н/о +20.1 +15.1 73 +23 +23 комфорт 1011.7 1010.3
09 24.06 ЮЗ 2 20 км н/о +19.2 +15.5 79 +22 +22 комфорт 1012.4 1011.0
10 24.06 С 3 20 км н/о +18.9 +15.6 81 +20 +20 1012.7 1011.3
11 24.06 В 2 20 км н/о +18.3 +15.4 83 +19 +19 1013.3 1011.9
12 24.06 В 2 20 км н/о +18.2 +14.9 81 +19 +19 1014.0 1012.6 +23.2
13 24.06 Ю 2 20 км н/о +17.1 +13.6 80 +18 +18 1013.9 1012.5
14 24.06 Ю 1 20 км н/о +16.2 +13.5 84 +17 +17 1014.5 1013.1
15 24.06 СЗ 1 20 км н/о +16.3 +13.4 83 +17 +17 1014.5 1013.1
16 24.06 В 2 20 км н/о +16.4 +13.7 84 +17 +17 1014.6 1013.2
17 24.06 ЮВ 1 20 км н/о +15.9 +13.8 87 +17 +17 1014.9 1013.5
18 24.06 В 1 20 км н/о +15.6 +13.6 88 +17 +17 1015.2 1013.8
19 24.06 СВ 2 20 км н/о +15.4 +13.6 89 +15 +15 1015.4 1014.0
20 24.06 Ю 2 20 км н/о +15.5 +13.7 89 +15 +15 1016.0 1014.6
21 24.06 Ю 1 20 км н/о +16.7 +14.4 86 +18 +18 1016.6 1015.2
22 24.06 ЮЗ 2 20 км н/о +18.6 +14.9 79 +20 +20 1016.8 1015.4
23 24.06 ЮЗ 3 20 км н/о +19.0 +15.1 78 +21 +21 комфорт 1016.8 1015.4
00 25.06 ЮЗ 2 20 км н/о +20.3 +16.2 77 +24 +24 комфорт 1016.8 1015.4 +15.0
01 25.06 З 3 20 км н/о +20.6 +14.3 67 +24 +24 комфорт 1016.7 1015.3
02 25.06 СЗ 4 20 км н/о +20.3 +14.9 71 +23 +23 комфорт 1016.8 1015.4
03 25.06 З 3 20 км н/о +20.8 +15.1 70 +24 +24 комфорт 1016.7 1015.3
04 25.06 З 3 20 км н/о +20.9 +15.5 71 +24 +24 комфорт 1016.8 1015.4
05 25.06 З 3 20 км н/о +20.8 +16.0 74 +25 +25 комфорт 1016.8 1015.4
06 25.06 ЮЗ 4 20 км н/о +21.6 +16.6 73 +25 +25 комфорт 1016.3 1014.9
07 25.06 ЮЗ 4 20 км н/о +21.4 +16.6 74 +25 +25 комфорт 1016.5 1015.1
08 25.06 ЮЗ 3 20 км н/о +20.7 +16.7 78 +24 +24 комфорт 1016.1 1014.7
09 25.06 З 4 20 км н/о +20.1 +16.4 79 +23 +23 комфорт 1016.5 1015.1
10 25.06 З 3 20 км н/о +19.5 +16.0 80 +22 +22 комфорт 1016.7 1015.3
11 25.06 З 1 20 км н/о +18.7 +15.8 83 +21 +21 комфорт 1016.5 1015.1
12 25.06 ЮВ 2 20 км н/о +18.2 +15.8 86 +19 +19 1016.8 1015.4 +22.5

 

Местоположение метеостанции Эсаси (Япония): широта 41.87 долгота 140.11 высота над уровнем моря 12 м.

В архиве по умолчанию представлена погода в Эсаси за последнюю неделю. Архивные данные за месяц целиком и за предыдущие месяцы, начиная с января 2011 года, Вы можете получить, выбрав интересующий диапазон дат из раскрывающегося списка и нажав кнопку "Ввод!".


*Определитесь, кто Вы:
робот инопланетянин человек

Внимание! Время в таблицах - всемирное. Для получения местного времени необходимо прибавить поправку, которая равна 9 ч.

Смотрите также архив погоды в соседних городах и на ближайших метеорологических станциях:

Погода в Хакодате (Япония) (53 км)
Погода в Муроране (Япония) (88 км)
Погода в Суццу (Япония) (104 км)
Погода в Муцу (Япония) (113 км)
Погода в Куттяне (Япония) (126 км)
Погода в Аомори (Япония) (129 км)
Погода в Фукауре (Япония) (137 км)
Погода в Томакомае (Япония) (145 км)
Погода в Отару (Япония) (163 км)
Погода в Саппоро (Япония) (167 км)

Пояснения к столбцам:

Ветер - указаны скорость ветра в м/с - средняя за 10 мин, порывы в срок и между сроками (в фигурных скобках) и направление, откуда дует ветер: С - северный, СВ - северо-восточный, В - восточный, ЮВ - юго-восточный, Ю - южный, ЮЗ - юго-западный, З - западный, СЗ - северо-западный.
Видимость - горизонтальная дальность видимости в метрах или километрах. При видимости от 1 до 10 км при отсутствии осадков обычно наблюдается дымка, при ухудшении видимости до 1 км и менее - туман. В сухую погоду видимость может ухудшаться дымом, пылью или мглою.
Явления - указаны атмосферные явления, наблюдавшиеся в срок или в последний час перед сроком; фигурными скобками обозначены явления, наблюдавшиеся между сроками (за 1-3 часа до срока); квадратными скобками обозначены град или гололедные отложения с указанием их диаметра в мм.
Облачность - указаны через наклонную черту общая и нижняя облачность в баллах и высота нижней границы облаков в метрах; квадратными скобками обозначены формы облаков: Ci - перистые, Cs - перисто-слоистые, Cc - перисто-кучевые, Ac - высококучевые, As - высокослоистые, Sc - слоисто-кучевые, Ns - слоисто-дождевые, Cu - кучевые, Cb - кучево-дождевые. Подробнее классификацию облаков см. в Атласе облаков (PDF).
T - Температура воздуха - температура, измеренная на высоте 2 м над землей.
Td - Температура точки росы - температура, при понижении до которой содержащийся в воздухе водяной пар достигнет насыщения.
f - Относительная влажность воздуха - влажноcть воздуха, измеренная на высоте 2 м над землей.
Te - Эффективная температура - температура, которую ощущает одетый по сезону человек в тени. Характеристика душности погоды. При расчете учитывается влияние влажности воздуха и скорости ветра на теплоощущения человека.
Tes - Эффективная температура на солнце - температура, которую ощущает человек, с поправкой на солнечный нагрев. Характеристика знойности погоды. Зависит от высоты солнца над горизонтом, облачности и скорости ветра. Ночью, в пасмурную погоду, а также при ветре 12 м/с и более поправка равна нулю.
P - Атмосферное давление - приведенное к уровню моря атмосферное давление.
Po - Атмосферное давление - измеренное на уровне метеостанции атмосферное давление.
Tmin - Минимальная температура - минимум температуры воздуха на высоте 2 м над землей.
Tmax - Максимальная температура - максимум температуры воздуха на высоте 2 м над землей.
R - Количество осадков - Количество выпавших осадков за период времени, мм. При наведении курсора мыши на число - период времени, за который выпало указанное количество осадков.
R24 - Количество осадков - Количество выпавших осадков за 24 часа, мм.
S - Снежный покров - Высота снежного покрова, см. При наведении курсора мыши на число - состояние снежного покрова и степень покрытия местности в баллах.